PRIVATE WETTERSTATION BILLIGHEIM-ALLFELD                       ZURCK
Wetterdaten: Sonntag, 17.04.2022
Datum Zeit Temp. A. Temp. A. min Temp. A. max Feuchte A. Luftdruck Regen Wind Richtung Richtung Sonnenschein ET Solar Taupunkt Windchill Windben Empfang
17.04.2022 00:00 5,4 C 5,2 C 5,4 C 65 % 1030,0 hPa 0,0 l/m 0,2 km/h (0 Bft) N-NO 19 0 min 0,000 mm 0 W/m -0,6 C 5,4 C 8,0 km/h (2 Bft) 97 %
17.04.2022 00:10 5,6 C 5,4 C 5,6 C 65 % 1030,1 hPa 0,0 l/m 0,1 km/h (0 Bft) N-NO 24 0 min 0,000 mm 0 W/m -0,4 C 5,6 C 4,8 km/h (1 Bft) 89 %
17.04.2022 00:20 5,6 C 5,5 C 5,6 C 65 % 1030,1 hPa 0,0 l/m 0,0 km/h (0 Bft) N-NO 29 0 min 0,000 mm 0 W/m -0,4 C 5,6 C 0,0 km/h (0 Bft) 97 %
17.04.2022 00:30 5,5 C 5,5 C 5,6 C 65 % 1030,2 hPa 0,0 l/m 0,3 km/h (0 Bft) NO 43 0 min 0,000 mm 0 W/m -0,5 C 5,5 C 6,4 km/h (2 Bft) 97 %
17.04.2022 00:40 5,4 C 5,4 C 5,5 C 65 % 1029,9 hPa 0,0 l/m 0,0 km/h (0 Bft) NO 40 0 min 0,000 mm 0 W/m -0,6 C 5,4 C 3,2 km/h (1 Bft) 97 %
17.04.2022 00:50 5,2 C 5,2 C 5,4 C 66 % 1029,8 hPa 0,0 l/m 0,0 km/h (0 Bft) NO 40 0 min 0,000 mm 0 W/m -0,6 C 5,2 C 0,0 km/h (0 Bft) 98 %
17.04.2022 01:00 5,0 C 5,0 C 5,2 C 67 % 1030,0 hPa 0,0 l/m 0,0 km/h (0 Bft) NO 40 0 min 0,025 mm 0 W/m -0,6 C 5,0 C 0,0 km/h (0 Bft) 97 %
17.04.2022 01:10 4,7 C 4,7 C 5,0 C 69 % 1030,1 hPa 0,0 l/m 0,0 km/h (0 Bft) NO 40 0 min 0,000 mm 0 W/m -0,5 C 4,7 C 0,0 km/h (0 Bft) 97 %
17.04.2022 01:20 4,4 C 4,4 C 4,7 C 70 % 1030,1 hPa 0,0 l/m 0,0 km/h (0 Bft) NO 39 0 min 0,000 mm 0 W/m -0,6 C 4,4 C 3,2 km/h (1 Bft) 98 %
17.04.2022 01:30 4,4 C 4,4 C 4,4 C 70 % 1030,0 hPa 0,0 l/m 0,0 km/h (0 Bft) NO 39 0 min 0,000 mm 0 W/m -0,6 C 4,4 C 0,0 km/h (0 Bft) 97 %
17.04.2022 01:40 4,3 C 4,3 C 4,4 C 70 % 1030,2 hPa 0,0 l/m 0,0 km/h (0 Bft) NO 39 0 min 0,000 mm 0 W/m -0,7 C 4,3 C 0,0 km/h (0 Bft) 98 %
17.04.2022 01:50 4,2 C 4,2 C 4,3 C 70 % 1030,1 hPa 0,0 l/m 0,1 km/h (0 Bft) NO 42 0 min 0,000 mm 0 W/m -0,8 C 4,2 C 3,2 km/h (1 Bft) 97 %
17.04.2022 02:00 4,2 C 4,2 C 4,2 C 70 % 1030,1 hPa 0,0 l/m 0,0 km/h (0 Bft) NO 42 0 min 0,026 mm 0 W/m -0,8 C 4,2 C 0,0 km/h (0 Bft) 97 %
17.04.2022 02:10 4,1 C 4,1 C 4,2 C 71 % 1030,0 hPa 0,0 l/m 0,0 km/h (0 Bft) NO 42 0 min 0,000 mm 0 W/m -0,7 C 4,1 C 0,0 km/h (0 Bft) 97 %
17.04.2022 02:20 3,9 C 3,9 C 4,1 C 71 % 1029,8 hPa 0,0 l/m 0,0 km/h (0 Bft) NO 42 0 min 0,000 mm 0 W/m -0,9 C 3,9 C 1,6 km/h (1 Bft) 98 %
17.04.2022 02:30 3,8 C 3,8 C 3,9 C 72 % 1029,6 hPa 0,0 l/m 0,1 km/h (0 Bft) NO 42 0 min 0,000 mm 0 W/m -0,8 C 3,8 C 3,2 km/h (1 Bft) 98 %
17.04.2022 02:40 3,7 C 3,7 C 3,8 C 72 % 1029,6 hPa 0,0 l/m 0,0 km/h (0 Bft) NO 42 0 min 0,000 mm 0 W/m -0,9 C 3,7 C 0,0 km/h (0 Bft) 99 %
17.04.2022 02:50 3,7 C 3,7 C 3,7 C 73 % 1029,4 hPa 0,0 l/m 0,0 km/h (0 Bft) NO 42 0 min 0,000 mm 0 W/m -0,7 C 3,7 C 0,0 km/h (0 Bft) 100 %
17.04.2022 03:00 3,6 C 3,6 C 3,7 C 73 % 1029,3 hPa 0,0 l/m 0,0 km/h (0 Bft) NO 42 0 min 0,025 mm 0 W/m -0,8 C 3,6 C 0,0 km/h (0 Bft) 100 %
17.04.2022 03:10 3,4 C 3,4 C 3,6 C 73 % 1029,4 hPa 0,0 l/m 0,0 km/h (0 Bft) NO 42 0 min 0,000 mm 0 W/m -1,0 C 3,4 C 0,0 km/h (0 Bft) 100 %
17.04.2022 03:20 3,2 C 3,2 C 3,4 C 74 % 1029,4 hPa 0,0 l/m 0,0 km/h (0 Bft) NO 42 0 min 0,000 mm 0 W/m -1,0 C 3,2 C 0,0 km/h (0 Bft) 99 %
17.04.2022 03:30 3,0 C 3,0 C 3,2 C 75 % 1029,2 hPa 0,0 l/m 0,0 km/h (0 Bft) NO 42 0 min 0,000 mm 0 W/m -1,0 C 3,0 C 0,0 km/h (0 Bft) 100 %
17.04.2022 03:40 2,9 C 2,9 C 3,0 C 75 % 1029,1 hPa 0,0 l/m 0,0 km/h (0 Bft) NO 42 0 min 0,000 mm 0 W/m -1,1 C 2,9 C 1,6 km/h (1 Bft) 100 %
17.04.2022 03:50 2,8 C 2,8 C 2,9 C 75 % 1029,0 hPa 0,0 l/m 0,0 km/h (0 Bft) NO 39 0 min 0,000 mm 0 W/m -1,2 C 2,8 C 0,0 km/h (0 Bft) 100 %
17.04.2022 04:00 2,7 C 2,7 C 2,8 C 76 % 1029,0 hPa 0,0 l/m 0,1 km/h (0 Bft) NO 39 0 min 0,026 mm 0 W/m -1,1 C 2,7 C 3,2 km/h (1 Bft) 100 %
17.04.2022 04:10 2,6 C 2,6 C 2,7 C 76 % 1029,0 hPa 0,0 l/m 0,0 km/h (0 Bft) NO 39 0 min 0,000 mm 0 W/m -1,2 C 2,6 C 0,0 km/h (0 Bft) 100 %
17.04.2022 04:20 2,6 C 2,6 C 2,6 C 76 % 1029,0 hPa 0,0 l/m 0,0 km/h (0 Bft) NO 39 0 min 0,000 mm 0 W/m -1,2 C 2,6 C 0,0 km/h (0 Bft) 100 %
17.04.2022 04:30 2,6 C 2,6 C 2,6 C 76 % 1028,9 hPa 0,0 l/m 0,0 km/h (0 Bft) NO 39 0 min 0,000 mm 0 W/m -1,2 C 2,6 C 1,6 km/h (1 Bft) 99 %
17.04.2022 04:40 2,7 C 2,6 C 2,7 C 76 % 1028,6 hPa 0,0 l/m 0,0 km/h (0 Bft) NO 39 0 min 0,000 mm 0 W/m -1,1 C 2,7 C 0,0 km/h (0 Bft) 100 %
17.04.2022 04:50 2,7 C 2,7 C 2,7 C 75 % 1028,5 hPa 0,0 l/m 0,0 km/h (0 Bft) NO 39 0 min 0,000 mm 0 W/m -1,3 C 2,7 C 0,0 km/h (0 Bft) 100 %
17.04.2022 05:00 2,7 C 2,7 C 2,7 C 75 % 1028,7 hPa 0,0 l/m 0,0 km/h (0 Bft) NO 38 0 min 0,000 mm 0 W/m -1,3 C 2,7 C 1,6 km/h (1 Bft) 91 %
17.04.2022 05:10 2,7 C 2,7 C 2,7 C 75 % 1028,6 hPa 0,0 l/m 0,0 km/h (0 Bft) NO 38 0 min 0,000 mm 0 W/m -1,3 C 2,7 C 0,0 km/h (0 Bft) 100 %
17.04.2022 05:20 2,7 C 2,7 C 2,7 C 75 % 1028,7 hPa 0,0 l/m 0,0 km/h (0 Bft) NO 48 0 min 0,000 mm 0 W/m -1,3 C 2,7 C 1,6 km/h (1 Bft) 100 %
17.04.2022 05:30 2,6 C 2,6 C 2,7 C 75 % 1028,8 hPa 0,0 l/m 0,0 km/h (0 Bft) NO 46 0 min 0,000 mm 0 W/m -1,4 C 2,6 C 4,8 km/h (1 Bft) 100 %
17.04.2022 05:40 2,4 C 2,4 C 2,6 C 76 % 1028,6 hPa 0,0 l/m 0,0 km/h (0 Bft) NO 46 0 min 0,000 mm 0 W/m -1,4 C 2,4 C 0,0 km/h (0 Bft) 100 %
17.04.2022 05:50 2,2 C 2,2 C 2,4 C 76 % 1028,5 hPa 0,0 l/m 0,0 km/h (0 Bft) NO 46 0 min 0,000 mm 0 W/m -1,6 C 2,2 C 0,0 km/h (0 Bft) 100 %
17.04.2022 06:00 2,1 C 2,1 C 2,2 C 76 % 1028,5 hPa 0,0 l/m 0,0 km/h (0 Bft) NO 46 0 min 0,000 mm 0 W/m -1,7 C 2,1 C 0,0 km/h (0 Bft) 100 %
17.04.2022 06:10 1,8 C 1,8 C 2,1 C 77 % 1028,5 hPa 0,0 l/m 0,0 km/h (0 Bft) NO 46 0 min 0,000 mm 0 W/m -1,8 C 1,8 C 0,0 km/h (0 Bft) 100 %
17.04.2022 06:20 1,8 C 1,8 C 1,8 C 78 % 1028,5 hPa 0,0 l/m 0,0 km/h (0 Bft) NO 46 0 min 0,000 mm 0 W/m -1,6 C 1,8 C 0,0 km/h (0 Bft) 100 %
17.04.2022 06:30 1,9 C 1,8 C 1,9 C 78 % 1028,5 hPa 0,0 l/m 0,5 km/h (0 Bft) NO 46 0 min 0,000 mm 0 W/m -1,5 C 1,9 C 4,8 km/h (1 Bft) 100 %
17.04.2022 06:40 1,9 C 1,9 C 2,0 C 78 % 1028,4 hPa 0,0 l/m 0,0 km/h (0 Bft) NO 46 0 min 0,000 mm 7 W/m -1,5 C 1,9 C 0,0 km/h (0 Bft) 100 %
17.04.2022 06:50 1,8 C 1,8 C 1,9 C 77 % 1028,3 hPa 0,0 l/m 0,0 km/h (0 Bft) NO 46 0 min 0,000 mm 12 W/m -1,8 C 1,8 C 0,0 km/h (0 Bft) 100 %
17.04.2022 07:00 1,9 C 1,8 C 1,9 C 77 % 1028,4 hPa 0,0 l/m 0,2 km/h (0 Bft) NO 41 0 min 0,000 mm 14 W/m -1,7 C 1,9 C 6,4 km/h (2 Bft) 100 %
17.04.2022 07:10 2,0 C 1,9 C 2,0 C 77 % 1028,5 hPa 0,0 l/m 0,0 km/h (0 Bft) NO 41 0 min 0,000 mm 18 W/m -1,6 C 2,0 C 0,0 km/h (0 Bft) 100 %
17.04.2022 07:20 2,0 C 2,0 C 2,0 C 78 % 1028,6 hPa 0,0 l/m 0,0 km/h (0 Bft) NO 41 0 min 0,000 mm 21 W/m -1,4 C 2,0 C 0,0 km/h (0 Bft) 100 %
17.04.2022 07:30 2,0 C 1,9 C 2,0 C 79 % 1028,6 hPa 0,0 l/m 0,0 km/h (0 Bft) NO 41 0 min 0,000 mm 23 W/m -1,2 C 2,0 C 0,0 km/h (0 Bft) 100 %
17.04.2022 07:40 1,9 C 1,9 C 2,0 C 79 % 1028,6 hPa 0,0 l/m 0,0 km/h (0 Bft) NO 41 0 min 0,000 mm 28 W/m -1,3 C 1,9 C 0,0 km/h (0 Bft) 100 %
17.04.2022 07:50 1,9 C 1,9 C 1,9 C 80 % 1028,6 hPa 0,0 l/m 0,0 km/h (0 Bft) NO 41 0 min 0,000 mm 37 W/m -1,2 C 1,9 C 0,0 km/h (0 Bft) 100 %
17.04.2022 08:00 2,0 C 1,9 C 2,0 C 81 % 1028,5 hPa 0,0 l/m 0,0 km/h (0 Bft) NO 41 0 min 0,000 mm 33 W/m -0,9 C 2,0 C 0,0 km/h (0 Bft) 99 %
17.04.2022 08:10 2,1 C 2,0 C 2,1 C 81 % 1028,5 hPa 0,0 l/m 0,0 km/h (0 Bft) NO 41 0 min 0,000 mm 33 W/m -0,8 C 2,1 C 0,0 km/h (0 Bft) 100 %
17.04.2022 08:20 2,4 C 2,1 C 2,4 C 81 % 1028,5 hPa 0,0 l/m 0,0 km/h (0 Bft) NO 41 0 min 0,000 mm 40 W/m -0,5 C 2,4 C 0,0 km/h (0 Bft) 100 %
17.04.2022 08:30 2,9 C 2,4 C 2,9 C 80 % 1028,5 hPa 0,0 l/m 0,0 km/h (0 Bft) NO 41 10 min 0,000 mm 271 W/m -0,2 C 2,9 C 0,0 km/h (0 Bft) 100 %
17.04.2022 08:40 3,9 C 2,9 C 3,9 C 79 % 1028,4 hPa 0,0 l/m 0,0 km/h (0 Bft) NO 41 10 min 0,000 mm 338 W/m 0,6 C 3,9 C 0,0 km/h (0 Bft) 100 %
17.04.2022 08:50 5,5 C 3,9 C 5,5 C 74 % 1028,4 hPa 0,0 l/m 0,0 km/h (0 Bft) NO 41 10 min 0,000 mm 371 W/m 1,2 C 5,5 C 0,0 km/h (0 Bft) 99 %
17.04.2022 09:00 6,7 C 5,5 C 6,7 C 69 % 1028,4 hPa 0,0 l/m 0,1 km/h (0 Bft) O 84 10 min 0,076 mm 401 W/m 1,4 C 6,7 C 4,8 km/h (1 Bft) 98 %
17.04.2022 09:10 7,7 C 6,7 C 7,7 C 66 % 1028,4 hPa 0,0 l/m 0,0 km/h (0 Bft) O 84 10 min 0,000 mm 429 W/m 1,8 C 7,7 C 0,0 km/h (0 Bft) 97 %
17.04.2022 09:20 8,3 C 7,7 C 8,3 C 64 % 1028,3 hPa 0,0 l/m 0,0 km/h (0 Bft) O 80 10 min 0,000 mm 455 W/m 1,9 C 8,3 C 0,0 km/h (0 Bft) 97 %
17.04.2022 09:30 8,8 C 8,3 C 8,8 C 61 % 1028,3 hPa 0,0 l/m 0,1 km/h (0 Bft) O-NO 76 10 min 0,000 mm 485 W/m 1,7 C 8,8 C 3,2 km/h (1 Bft) 97 %
17.04.2022 09:40 9,1 C 8,8 C 9,1 C 59 % 1028,2 hPa 0,0 l/m 0,2 km/h (0 Bft) O-NO 58 10 min 0,000 mm 513 W/m 1,5 C 9,1 C 4,8 km/h (1 Bft) 97 %
17.04.2022 09:50 9,3 C 9,1 C 9,3 C 61 % 1028,1 hPa 0,0 l/m 0,1 km/h (0 Bft) NO 47 10 min 0,000 mm 538 W/m 2,2 C 9,3 C 4,8 km/h (1 Bft) 98 %
17.04.2022 10:00 9,6 C 9,3 C 9,6 C 56 % 1027,9 hPa 0,0 l/m 2,6 km/h (1 Bft) O 90 10 min 0,228 mm 563 W/m 1,3 C 9,6 C 14,5 km/h (3 Bft) 97 %
17.04.2022 10:10 10,1 C 9,6 C 10,1 C 54 % 1027,7 hPa 0,0 l/m 0,4 km/h (0 Bft) O 84 10 min 0,000 mm 587 W/m 1,2 C 10,1 C 6,4 km/h (2 Bft) 98 %
17.04.2022 10:20 10,3 C 10,1 C 10,3 C 54 % 1027,7 hPa 0,0 l/m 1,7 km/h (1 Bft) O-SO 121 10 min 0,000 mm 612 W/m 1,4 C 10,3 C 11,3 km/h (2 Bft) 97 %
17.04.2022 10:30 10,1 C 10,1 C 10,3 C 52 % 1027,6 hPa 0,0 l/m 3,6 km/h (1 Bft) O-SO 117 10 min 0,000 mm 631 W/m 0,7 C 10,1 C 19,3 km/h (3 Bft) 97 %
17.04.2022 10:40 10,4 C 10,1 C 10,4 C 53 % 1027,6 hPa 0,0 l/m 1,3 km/h (1 Bft) O 93 10 min 0,000 mm 652 W/m 1,2 C 10,4 C 16,1 km/h (3 Bft) 89 %
17.04.2022 10:50 10,7 C 10,4 C 10,7 C 51 % 1027,4 hPa 0,0 l/m 2,0 km/h (1 Bft) O 94 10 min 0,000 mm 671 W/m 1,0 C 10,7 C 12,9 km/h (3 Bft) 97 %
17.04.2022 11:00 11,2 C 10,7 C 11,2 C 50 % 1027,4 hPa 0,0 l/m 0,3 km/h (0 Bft) O 80 10 min 0,305 mm 691 W/m 1,2 C 11,2 C 12,9 km/h (3 Bft) 99 %
17.04.2022 11:10 11,4 C 11,2 C 11,4 C 50 % 1027,3 hPa 0,0 l/m 1,2 km/h (1 Bft) O-SO 115 10 min 0,000 mm 712 W/m 1,4 C 11,4 C 9,7 km/h (2 Bft) 100 %
17.04.2022 11:20 11,6 C 11,4 C 11,7 C 48 % 1027,1 hPa 0,0 l/m 2,3 km/h (1 Bft) O 87 10 min 0,000 mm 724 W/m 1,0 C 11,6 C 14,5 km/h (3 Bft) 100 %
17.04.2022 11:30 11,8 C 11,6 C 11,8 C 49 % 1027,1 hPa 0,0 l/m 0,8 km/h (0 Bft) SO 136 10 min 0,000 mm 744 W/m 1,4 C 11,8 C 14,5 km/h (3 Bft) 100 %
17.04.2022 11:40 12,2 C 11,8 C 12,2 C 49 % 1026,9 hPa 0,0 l/m 0,9 km/h (0 Bft) N 355 10 min 0,000 mm 758 W/m 1,8 C 12,2 C 17,7 km/h (3 Bft) 100 %
17.04.2022 11:50 12,7 C 12,2 C 12,7 C 48 % 1026,8 hPa 0,0 l/m 0,3 km/h (0 Bft) NO 44 10 min 0,000 mm 770 W/m 2,0 C 12,7 C 8,0 km/h (2 Bft) 98 %
17.04.2022 12:00 12,9 C 12,7 C 12,9 C 47 % 1026,8 hPa 0,0 l/m 0,5 km/h (0 Bft) N-NO 28 10 min 0,356 mm 817 W/m 1,9 C 12,9 C 9,7 km/h (2 Bft) 100 %
17.04.2022 12:10 12,9 C 12,8 C 12,9 C 47 % 1026,7 hPa 0,0 l/m 1,3 km/h (1 Bft) N 360 10 min 0,000 mm 810 W/m 1,9 C 12,9 C 11,3 km/h (2 Bft) 100 %
17.04.2022 12:20 13,3 C 12,9 C 13,3 C 46 % 1026,6 hPa 0,0 l/m 0,3 km/h (0 Bft) NO 34 10 min 0,000 mm 647 W/m 1,9 C 13,3 C 8,0 km/h (2 Bft) 99 %
17.04.2022 12:30 13,2 C 13,2 C 13,3 C 45 % 1026,4 hPa 0,0 l/m 0,8 km/h (0 Bft) NO 42 10 min 0,000 mm 731 W/m 1,5 C 13,2 C 12,9 km/h (3 Bft) 99 %
17.04.2022 12:40 13,3 C 13,2 C 13,3 C 46 % 1026,1 hPa 0,0 l/m 0,5 km/h (0 Bft) NO 54 10 min 0,000 mm 849 W/m 1,9 C 13,3 C 11,3 km/h (2 Bft) 99 %
17.04.2022 12:50 13,4 C 13,3 C 13,4 C 44 % 1026,1 hPa 0,0 l/m 1,2 km/h (1 Bft) NO 54 10 min 0,000 mm 874 W/m 1,4 C 13,4 C 14,5 km/h (3 Bft) 100 %
17.04.2022 13:00 13,4 C 13,4 C 13,6 C 44 % 1026,0 hPa 0,0 l/m 0,9 km/h (0 Bft) SO 132 10 min 0,406 mm 826 W/m 1,4 C 13,4 C 9,7 km/h (2 Bft) 100 %
17.04.2022 13:10 13,5 C 13,2 C 13,5 C 46 % 1025,9 hPa 0,0 l/m 0,6 km/h (0 Bft) O 90 10 min 0,000 mm 863 W/m 2,1 C 13,5 C 11,3 km/h (2 Bft) 99 %
17.04.2022 13:20 13,7 C 13,5 C 13,8 C 45 % 1025,8 hPa 0,0 l/m 1,5 km/h (1 Bft) O-NO 77 10 min 0,000 mm 733 W/m 2,0 C 13,7 C 16,1 km/h (3 Bft) 100 %
17.04.2022 13:30 13,6 C 13,6 C 13,7 C 43 % 1025,6 hPa 0,0 l/m 0,3 km/h (0 Bft) NO 46 10 min 0,000 mm 543 W/m 1,3 C 13,6 C 8,0 km/h (2 Bft) 100 %
17.04.2022 13:40 13,8 C 13,6 C 13,8 C 43 % 1025,6 hPa 0,0 l/m 0,9 km/h (0 Bft) SO 132 10 min 0,000 mm 664 W/m 1,4 C 13,8 C 12,9 km/h (3 Bft) 100 %
17.04.2022 13:50 14,0 C 13,8 C 14,0 C 41 % 1025,3 hPa 0,0 l/m 0,4 km/h (0 Bft) NO 36 10 min 0,000 mm 833 W/m 1,0 C 14,0 C 9,7 km/h (2 Bft) 99 %
17.04.2022 14:00 14,3 C 14,0 C 14,3 C 43 % 1025,2 hPa 0,0 l/m 0,2 km/h (0 Bft) O-NO 66 10 min 0,381 mm 816 W/m 1,9 C 14,3 C 4,8 km/h (1 Bft) 99 %
17.04.2022 14:10 14,4 C 14,2 C 14,4 C 44 % 1025,0 hPa 0,0 l/m 1,2 km/h (1 Bft) NO 36 10 min 0,000 mm 775 W/m 2,3 C 14,4 C 19,3 km/h (3 Bft) 100 %
17.04.2022 14:20 15,1 C 14,4 C 15,1 C 43 % 1024,9 hPa 0,0 l/m 0,2 km/h (0 Bft) N-NO 17 10 min 0,000 mm 803 W/m 2,6 C 15,1 C 8,0 km/h (2 Bft) 100 %
17.04.2022 14:30 15,1 C 15,1 C 15,1 C 44 % 1024,6 hPa 0,0 l/m 0,7 km/h (0 Bft) O-SO 106 10 min 0,000 mm 791 W/m 2,9 C 15,1 C 14,5 km/h (3 Bft) 100 %
17.04.2022 14:40 15,1 C 15,1 C 15,1 C 43 % 1024,4 hPa 0,0 l/m 0,2 km/h (0 Bft) N-NO 20 10 min 0,000 mm 780 W/m 2,6 C 15,1 C 8,0 km/h (2 Bft) 100 %
17.04.2022 14:50 15,1 C 15,1 C 15,1 C 41 % 1024,3 hPa 0,0 l/m 1,2 km/h (1 Bft) NO 42 10 min 0,000 mm 772 W/m 2,0 C 15,1 C 11,3 km/h (2 Bft) 100 %
17.04.2022 15:00 15,4 C 15,1 C 15,4 C 38 % 1024,2 hPa 0,0 l/m 2,7 km/h (1 Bft) O 96 10 min 0,407 mm 754 W/m 1,2 C 15,4 C 12,9 km/h (3 Bft) 100 %
17.04.2022 15:10 15,5 C 15,3 C 15,5 C 39 % 1024,0 hPa 0,0 l/m 0,4 km/h (0 Bft) N-NO 13 10 min 0,000 mm 744 W/m 1,6 C 15,5 C 6,4 km/h (2 Bft) 99 %
17.04.2022 15:20 15,4 C 15,4 C 15,6 C 37 % 1023,9 hPa 0,0 l/m 2,5 km/h (1 Bft) O-NO 66 10 min 0,000 mm 728 W/m 0,8 C 15,4 C 27,4 km/h (4 Bft) 99 %
17.04.2022 15:30 15,6 C 15,3 C 15,6 C 36 % 1023,9 hPa 0,0 l/m 1,1 km/h (1 Bft) O-SO 109 10 min 0,000 mm 714 W/m 0,6 C 15,6 C 20,9 km/h (4 Bft) 98 %
17.04.2022 15:40 15,4 C 15,4 C 15,6 C 37 % 1023,6 hPa 0,0 l/m 2,1 km/h (1 Bft) O 100 10 min 0,000 mm 698 W/m 0,8 C 15,4 C 14,5 km/h (3 Bft) 100 %
17.04.2022 15:50 15,5 C 15,4 C 15,5 C 38 % 1023,3 hPa 0,0 l/m 1,4 km/h (1 Bft) N 360 10 min 0,000 mm 677 W/m 1,3 C 15,5 C 16,1 km/h (3 Bft) 100 %
17.04.2022 16:00 15,9 C 15,5 C 15,9 C 39 % 1023,3 hPa 0,0 l/m 1,0 km/h (0 Bft) N-NO 14 10 min 0,381 mm 654 W/m 2,0 C 15,9 C 14,5 km/h (3 Bft) 99 %
17.04.2022 16:10 16,1 C 15,9 C 16,1 C 40 % 1023,1 hPa 0,0 l/m 0,3 km/h (0 Bft) N-NO 29 10 min 0,000 mm 635 W/m 2,5 C 16,1 C 9,7 km/h (2 Bft) 100 %
17.04.2022 16:20 15,9 C 15,9 C 16,1 C 39 % 1022,9 hPa 0,0 l/m 0,1 km/h (0 Bft) NO 49 10 min 0,000 mm 610 W/m 2,0 C 15,9 C 4,8 km/h (1 Bft) 100 %
17.04.2022 16:30 16,0 C 15,9 C 16,0 C 39 % 1022,8 hPa 0,0 l/m 0,2 km/h (0 Bft) NO 51 10 min 0,000 mm 584 W/m 2,1 C 16,0 C 4,8 km/h (1 Bft) 100 %
17.04.2022 16:40 16,1 C 16,0 C 16,1 C 38 % 1022,7 hPa 0,0 l/m 0,2 km/h (0 Bft) NO 39 10 min 0,000 mm 566 W/m 1,8 C 16,1 C 8,0 km/h (2 Bft) 100 %
17.04.2022 16:50 16,2 C 16,0 C 16,2 C 36 % 1022,6 hPa 0,0 l/m 1,7 km/h (1 Bft) O-NO 77 10 min 0,000 mm 538 W/m 1,1 C 16,2 C 20,9 km/h (4 Bft) 100 %
17.04.2022 17:00 16,2 C 16,2 C 16,3 C 35 % 1022,5 hPa 0,0 l/m 0,3 km/h (0 Bft) NO 53 10 min 0,330 mm 510 W/m 0,7 C 16,2 C 8,0 km/h (2 Bft) 100 %
17.04.2022 17:10 15,8 C 15,8 C 16,2 C 35 % 1022,4 hPa 0,0 l/m 1,6 km/h (1 Bft) NO 52 10 min 0,000 mm 482 W/m 0,4 C 15,8 C 14,5 km/h (3 Bft) 100 %
17.04.2022 17:20 15,8 C 15,7 C 15,8 C 38 % 1022,2 hPa 0,0 l/m 0,6 km/h (0 Bft) NO 44 10 min 0,000 mm 459 W/m 1,5 C 15,8 C 9,7 km/h (2 Bft) 100 %
17.04.2022 17:30 15,8 C 15,7 C 15,8 C 38 % 1022,0 hPa 0,0 l/m 0,0 km/h (0 Bft) NO 52 10 min 0,000 mm 432 W/m 1,5 C 15,8 C 0,0 km/h (0 Bft) 100 %
17.04.2022 17:40 15,7 C 15,7 C 15,8 C 38 % 1022,0 hPa 0,0 l/m 0,1 km/h (0 Bft) NO 40 10 min 0,000 mm 403 W/m 1,4 C 15,7 C 6,4 km/h (2 Bft) 100 %
17.04.2022 17:50 15,6 C 15,6 C 15,7 C 39 % 1021,9 hPa 0,0 l/m 0,0 km/h (0 Bft) NO 39 10 min 0,000 mm 381 W/m 1,7 C 15,6 C 3,2 km/h (1 Bft) 100 %
17.04.2022 18:00 15,4 C 15,4 C 15,6 C 38 % 1021,9 hPa 0,0 l/m 0,3 km/h (0 Bft) N-NO 17 10 min 0,228 mm 352 W/m 1,2 C 15,4 C 16,1 km/h (3 Bft) 100 %
17.04.2022 18:10 15,1 C 15,1 C 15,4 C 39 % 1021,9 hPa 0,0 l/m 0,5 km/h (0 Bft) NO 53 10 min 0,000 mm 313 W/m 1,3 C 15,1 C 9,7 km/h (2 Bft) 100 %
17.04.2022 18:20 15,0 C 15,0 C 15,1 C 39 % 1021,9 hPa 0,0 l/m 0,2 km/h (0 Bft) NO 36 10 min 0,000 mm 162 W/m 1,2 C 15,0 C 8,0 km/h (2 Bft) 100 %
17.04.2022 18:30 14,6 C 14,6 C 15,0 C 40 % 1021,9 hPa 0,0 l/m 0,0 km/h (0 Bft) O 91 10 min 0,000 mm 262 W/m 1,2 C 14,6 C 3,2 km/h (1 Bft) 100 %
17.04.2022 18:40 14,4 C 14,4 C 14,6 C 40 % 1021,8 hPa 0,0 l/m 0,0 km/h (0 Bft) O-NO 75 0 min 0,000 mm 53 W/m 1,0 C 14,4 C 1,6 km/h (1 Bft) 100 %
17.04.2022 18:50 14,1 C 14,1 C 14,4 C 43 % 1021,7 hPa 0,0 l/m 0,0 km/h (0 Bft) N-NO 17 0 min 0,000 mm 32 W/m 1,7 C 14,1 C 3,2 km/h (1 Bft) 100 %
17.04.2022 19:00 13,6 C 13,6 C 14,1 C 43 % 1021,7 hPa 0,0 l/m 0,0 km/h (0 Bft) N-NO 30 0 min 0,102 mm 37 W/m 1,3 C 13,6 C 0,0 km/h (0 Bft) 100 %
17.04.2022 19:10 13,4 C 13,4 C 13,6 C 42 % 1021,6 hPa 0,0 l/m 0,0 km/h (0 Bft) N-NO 31 0 min 0,000 mm 33 W/m 0,8 C 13,4 C 1,6 km/h (1 Bft) 100 %
17.04.2022 19:20 13,3 C 13,3 C 13,4 C 43 % 1021,6 hPa 0,0 l/m 0,0 km/h (0 Bft) NO 40 0 min 0,000 mm 30 W/m 1,0 C 13,3 C 1,6 km/h (1 Bft) 99 %
17.04.2022 19:30 13,1 C 13,1 C 13,3 C 43 % 1021,6 hPa 0,0 l/m 0,1 km/h (0 Bft) NO 38 0 min 0,000 mm 26 W/m 0,8 C 13,1 C 8,0 km/h (2 Bft) 100 %
17.04.2022 19:40 12,9 C 12,9 C 13,1 C 43 % 1021,5 hPa 0,0 l/m 0,4 km/h (0 Bft) N-NO 27 0 min 0,000 mm 21 W/m 0,6 C 12,9 C 11,3 km/h (2 Bft) 100 %
17.04.2022 19:50 12,7 C 12,7 C 12,9 C 44 % 1021,5 hPa 0,0 l/m 0,1 km/h (0 Bft) N-NO 33 0 min 0,000 mm 18 W/m 0,8 C 12,7 C 6,4 km/h (2 Bft) 100 %
17.04.2022 20:00 12,4 C 12,4 C 12,7 C 45 % 1021,5 hPa 0,0 l/m 0,2 km/h (0 Bft) N-NO 26 0 min 0,025 mm 14 W/m 0,8 C 12,4 C 8,0 km/h (2 Bft) 100 %
17.04.2022 20:10 11,9 C 11,9 C 12,4 C 45 % 1021,5 hPa 0,0 l/m 0,0 km/h (0 Bft) N-NO 26 0 min 0,000 mm 7 W/m 0,4 C 11,9 C 0,0 km/h (0 Bft) 99 %
17.04.2022 20:20 11,5 C 11,5 C 11,9 C 47 % 1021,7 hPa 0,0 l/m 0,1 km/h (0 Bft) N-NO 32 0 min 0,000 mm 0 W/m 0,6 C 11,5 C 6,4 km/h (2 Bft) 100 %
17.04.2022 20:30 11,0 C 11,0 C 11,5 C 47 % 1021,6 hPa 0,0 l/m 0,0 km/h (0 Bft) N-NO 32 0 min 0,000 mm 0 W/m 0,1 C 11,0 C 0,0 km/h (0 Bft) 100 %
17.04.2022 20:40 10,7 C 10,7 C 11,0 C 47 % 1021,6 hPa 0,0 l/m 0,0 km/h (0 Bft) N-NO 32 0 min 0,000 mm 0 W/m -0,1 C 10,7 C 0,0 km/h (0 Bft) 100 %
17.04.2022 20:50 10,3 C 10,3 C 10,7 C 48 % 1021,6 hPa 0,0 l/m 0,0 km/h (0 Bft) N-NO 32 0 min 0,000 mm 0 W/m -0,2 C 10,3 C 0,0 km/h (0 Bft) 100 %
17.04.2022 21:00 10,1 C 10,1 C 10,3 C 49 % 1021,6 hPa 0,0 l/m 0,0 km/h (0 Bft) N-NO 32 0 min 0,000 mm 0 W/m -0,1 C 10,1 C 0,0 km/h (0 Bft) 100 %
17.04.2022 21:10 9,8 C 9,8 C 10,1 C 49 % 1021,6 hPa 0,0 l/m 0,0 km/h (0 Bft) N-NO 32 0 min 0,000 mm 0 W/m -0,4 C 9,8 C 1,6 km/h (1 Bft) 100 %
17.04.2022 21:20 9,6 C 9,6 C 9,8 C 50 % 1021,6 hPa 0,0 l/m 0,0 km/h (0 Bft) N-NO 32 0 min 0,000 mm 0 W/m -0,3 C 9,6 C 0,0 km/h (0 Bft) 100 %
17.04.2022 21:30 9,3 C 9,3 C 9,6 C 52 % 1021,6 hPa 0,0 l/m 0,0 km/h (0 Bft) N-NO 32 0 min 0,000 mm 0 W/m -0,0 C 9,3 C 0,0 km/h (0 Bft) 100 %
17.04.2022 21:40 9,1 C 9,1 C 9,3 C 52 % 1021,5 hPa 0,0 l/m 0,0 km/h (0 Bft) N-NO 32 0 min 0,000 mm 0 W/m -0,2 C 9,1 C 0,0 km/h (0 Bft) 100 %
17.04.2022 21:50 8,8 C 8,8 C 9,1 C 52 % 1021,4 hPa 0,0 l/m 0,0 km/h (0 Bft) N-NO 32 0 min 0,000 mm 0 W/m -0,5 C 8,8 C 0,0 km/h (0 Bft) 100 %
17.04.2022 22:00 8,7 C 8,7 C 8,8 C 52 % 1021,4 hPa 0,0 l/m 0,0 km/h (0 Bft) N-NO 32 0 min 0,000 mm 0 W/m -0,6 C 8,7 C 0,0 km/h (0 Bft) 99 %
17.04.2022 22:10 8,5 C 8,5 C 8,7 C 53 % 1021,5 hPa 0,0 l/m 0,0 km/h (0 Bft) N-NO 32 0 min 0,025 mm 0 W/m -0,5 C 8,5 C 0,0 km/h (0 Bft) 100 %
17.04.2022 22:20 8,3 C 8,3 C 8,5 C 53 % 1021,4 hPa 0,0 l/m 0,0 km/h (0 Bft) N-NO 32 0 min 0,001 mm 0 W/m -0,7 C 8,3 C 0,0 km/h (0 Bft) 100 %
17.04.2022 22:30 8,2 C 8,2 C 8,4 C 53 % 1021,2 hPa 0,0 l/m 0,0 km/h (0 Bft) N-NO 32 0 min 0,000 mm 0 W/m -0,8 C 8,2 C 0,0 km/h (0 Bft) 100 %
17.04.2022 22:40 8,1 C 8,1 C 8,2 C 52 % 1021,1 hPa 0,0 l/m 0,0 km/h (0 Bft) N-NO 32 0 min 0,000 mm 0 W/m -1,2 C 8,1 C 0,0 km/h (0 Bft) 100 %
17.04.2022 22:50 8,1 C 8,1 C 8,1 C 53 % 1021,1 hPa 0,0 l/m 0,0 km/h (0 Bft) N-NO 32 0 min 0,000 mm 0 W/m -0,9 C 8,1 C 0,0 km/h (0 Bft) 100 %
17.04.2022 23:00 8,0 C 8,0 C 8,1 C 53 % 1021,0 hPa 0,0 l/m 0,0 km/h (0 Bft) N-NO 32 0 min 0,000 mm 0 W/m -1,0 C 8,0 C 1,6 km/h (1 Bft) 100 %
17.04.2022 23:10 7,7 C 7,7 C 8,0 C 56 % 1020,9 hPa 0,0 l/m 0,1 km/h (0 Bft) NO 46 0 min 0,025 mm 0 W/m -0,5 C 7,7 C 4,8 km/h (1 Bft) 100 %
17.04.2022 23:20 7,6 C 7,6 C 7,7 C 54 % 1020,9 hPa 0,0 l/m 0,0 km/h (0 Bft) NO 49 0 min 0,000 mm 0 W/m -1,1 C 7,6 C 1,6 km/h (1 Bft) 100 %
17.04.2022 23:30 7,8 C 7,6 C 7,8 C 54 % 1020,9 hPa 0,0 l/m 0,0 km/h (0 Bft) NO 48 0 min 0,000 mm 0 W/m -0,9 C 7,8 C 0,0 km/h (0 Bft) 100 %
17.04.2022 23:40 8,0 C 7,8 C 8,1 C 53 % 1020,8 hPa 0,0 l/m 0,0 km/h (0 Bft) NO 48 0 min 0,000 mm 0 W/m -1,0 C 8,0 C 0,0 km/h (0 Bft) 100 %
17.04.2022 23:50 8,0 C 8,0 C 8,1 C 55 % 1020,7 hPa 0,0 l/m 0,0 km/h (0 Bft) NO 48 0 min 0,000 mm 0 W/m -0,5 C 8,0 C 0,0 km/h (0 Bft) 100 %
_ Min-Zeit 06:10 06:10 06:20 17:00 23:50 - 00:20 - - - - - 06:10 06:10 00:20 00:10
Minimum _ 1,8 C 1,8 C 1,8 C 35 % 1020,7 hPa - 0,0 km/h (0 Bft) - - - - - -1,8 C 1,8 C 0,0 km/h (0 Bft) 89 %
_ Max-Zeit 17:00 17:00 17:00 08:00 00:30 00:00 10:30 - - 08:30 15:00 12:50 14:30 16:50 15:20 02:50
Maximum _ 16,3 C 16,2 C 16,3 C 81 % 1030,2 hPa 0,0 l/m 3,6 km/h
O-SO (1 Bft)
- - 10 min 0,407 mm 874 W/m 2,9 C 16,2 C 27,4 km/h
SO (4 Bft)
100 %
Durchschnitt _ 8,9 C 8,8 C 9,0 C 57 % 1025,8 hPa #0,0 l/m 0,4 km/h (0 Bft) O - #10:10 h #3,378 mm 464 W/m 0,3 C 8,9 C 5,1 km/h (1 Bft) 99 %
PRIVATE WETTERSTATION BILLIGHEIM-ALLFELD - www.neckar-odenwald-wetter.de - Holger Sonntag